Wind_Speed
4 4 5 6 6 7 7 7 7 7 6 5 5 4 3 1 0 2 4 6 7 9 11 12 14 16 18 19 19 18 17 17 16 14 13 11 11 10 9 9 8 8 7
2 2 3 3 4 4 5 5 5 5 5 4 4 3 3 2 1 1 2 4 5 7 9 10 12 14 16 18 18 18 17 17 18 17 15 14 13 12 11 10 9 8 6
1 1 1 1 1 2 2 2 3 3 2 3 3 2 3 2 2 1 2 3 4 5 6 8 10 12 14 15 16 17 17 17 17 17 16 14 13 13 12 10 9 7 6
2 3 3 2 2 2 1 1 1 0 0 1 1 1 2 2 2 2 2 2 3 4 5 6 8 9 11 13 14 15 16 16 16 16 15 14 12 12 11 10 9 7 5
4 4 5 5 5 5 4 4 3 3 2 2 2 2 2 2 2 2 2 2 3 3 4 5 6 7 8 9 10 11 13 14 14 14 14 13 11 10 9 9 7 6 4
6 6 6 7 7 8 8 7 7 6 5 5 4 4 4 3 3 2 2 2 3 3 4 4 5 6 6 7 8 9 10 11 12 12 12 11 10 8 7 7 6 5 3
7 7 8 8 9 10 10 11 10 10 9 8 7 7 6 5 5 4 3 3 3 3 3 3 4 4 5 5 6 7 7 9 10 10 10 9 8 7 6 6 6 4 3
8 9 10 10 11 12 12 13 13 13 13 12 11 10 9 8 7 6 5 4 4 3 3 3 3 3 4 4 5 5 6 7 8 8 8 7 8 7 6 6 6 5 5
10 11 12 13 13 14 15 15 16 16 16 15 14 14 13 12 11 10 8 7 6 4 3 3 3 3 3 3 4 4 5 6 7 7 7 7 7 6 6 7 7 6 5
13 14 15 16 16 17 17 17 18 19 19 18 18 17 16 15 14 13 12 10 9 7 6 4 4 3 3 3 4 4 4 6 6 7 7 7 8 7 7 7 7 7 6
17 17 18 18 18 18 18 19 20 20 21 21 21 20 19 18 17 16 16 14 13 11 9 8 6 5 4 4 4 4 5 6 6 6 7 7 8 8 8 8 7 7 6
23 23 23 22 22 22 22 22 22 22 22 23 23 23 22 21 20 20 19 18 17 15 13 11 10 8 6 5 5 6 6 7 6 6 7 8 8 8 8 8 7 7 7
30 30 30 29 28 27 26 26 25 25 24 25 26 26 26 25 25 24 23 22 22 20 18 16 14 12 10 8 7 7 8 8 7 7 8 8 8 8 8 8 7 7 7
35 35 35 34 34 33 32 31 29 29 29 28 28 28 28 28 28 28 28 27 26 24 22 20 18 16 14 12 10 9 9 9 9 9 9 9 9 9 8 8 7 7 6
37 37 38 37 37 37 37 36 35 34 33 32 32 31 30 30 30 31 29 31 30 29 26 24 22 20 18 16 14 13 12 11 11 11 10 10 10 10 9 9 8 7 7
38 39 39 40 40 40 40 39 38 38 37 36 35 34 34 33 32 30 31 31 33 33 31 27 26 24 22 20 19 17 15 15 14 13 12 12 11 11 11 10 9 8 8
39 39 39 40 40 40 41 41 41 40 40 39 39 38 37 36 36 34 33 33 33 34 33 31 30 28 26 24 22 21 20 18 18 17 15 14 13 13 12 11 11 10 9
37 38 38 39 39 39 40 40 40 40 40 40 40 40 40 40 39 38 36 35 34 33 33 33 31 31 30 28 26 24 23 22 22 21 19 18 16 16 15 14 13 12 11
34 35 36 37 38 38 39 39 40 40 40 39 39 39 40 41 41 40 38 37 35 33 32 32 31 32 31 31 30 28 27 26 26 25 23 21 20 19 18 17 16 15 14
31 32 33 34 35 36 38 38 39 39 40 39 39 39 40 41 41 41 39 39 37 34 33 32 32 33 32 32 32 31 31 30 29 28 27 25 23 22 21 20 19 18 17
27 28 29 30 31 32 34 35 36 38 39 39 40 39 39 40 41 41 41 40 37 36 34 34 33 33 32 32 32 32 32 32 32 31 30 28 27 25 24 22 21 20 20
24 24 25 25 26 28 29 31 32 34 36 37 37 38 38 40 40 41 41 40 38 37 36 35 34 33 33 32 31 32 33 33 33 32 32 30 30 29 27 25 24 23 22
21 22 22 22 23 24 26 27 28 30 31 33 35 36 37 39 39 40 39 40 39 38 37 36 36 36 34 33 33 32 33 34 35 34 33 32 31 30 29 28 27 26 25
19 18 19 19 20 21 22 22 23 24 26 29 31 32 34 35 37 38 38 39 38 38 37 36 36 36 35 35 34 34 34 34 35 36 36 35 34 32 31 30 29 28 27
17 17 17 17 18 18 18 18 19 21 23 24 26 28 30 32 34 35 37 38 37 38 38 38 36 36 35 35 35 34 34 35 35 36 36 36 35 33 32 31 31 30 29
18 18 18 18 17 16 16 16 17 18 19 20 21 23 25 27 29 32 34 36 37 37 37 38 38 36 36 35 36 35 35 36 36 36 36 36 35 34 33 33 32 32 30
Wind_Direction
100 96 91 89 86 81 76 71 65 62 58 55 53 51 50 52 178 215 218 223 226 229 230 230 232 230 228 229 231 234 237 239 243 248 254 258 268 276 281 289 294 297 313
119 116 110 101 94 88 81 75 71 65 59 53 50 47 41 33 2 264 249 242 239 238 236 234 234 234 231 231 233 236 239 242 243 247 252 256 263 271 276 281 283 289 302
231 203 182 162 133 109 97 87 81 73 63 53 47 39 35 26 7 318 279 261 251 246 242 239 238 236 234 234 236 237 239 241 242 245 248 254 262 268 270 271 274 280 292
274 264 253 243 235 232 225 203 175 147 82 36 21 12 14 14 8 351 316 283 268 261 255 250 246 241 237 236 237 237 238 239 240 241 243 250 258 263 264 262 264 271 282
280 278 273 266 256 252 251 249 246 245 248 257 269 284 303 323 337 340 326 303 285 275 267 259 253 247 241 238 237 235 234 234 237 239 241 245 251 256 255 253 251 256 263
278 277 277 274 267 262 258 256 256 253 250 252 258 265 271 279 291 307 315 306 291 281 274 265 259 252 245 240 234 232 232 232 234 237 237 240 241 242 240 237 233 234 231
278 274 272 272 271 267 264 260 257 255 252 252 255 259 263 266 271 282 293 296 293 289 281 272 264 256 249 241 232 227 226 228 230 229 230 230 228 224 224 216 208 200 191
278 271 269 266 265 266 265 261 259 256 253 252 253 256 259 262 263 266 272 278 281 284 280 269 264 259 255 244 230 224 221 222 221 220 219 213 209 209 205 198 192 185 178
282 275 270 265 260 258 259 259 258 257 255 253 253 254 257 259 260 259 260 262 263 264 265 259 254 255 256 240 221 214 212 215 213 206 205 199 194 196 192 187 183 175 169
279 277 274 269 262 257 257 256 255 254 253 252 252 253 255 257 258 257 256 255 254 253 251 250 248 247 245 230 214 207 208 211 207 198 197 192 189 186 182 179 177 171 163
272 271 271 271 270 265 260 259 257 256 253 251 251 250 251 253 255 255 254 253 251 249 246 245 245 242 235 226 218 212 208 209 201 190 188 183 181 180 179 177 174 168 163
270 267 266 265 267 267 266 263 262 259 254 252 252 250 250 251 252 254 253 251 249 248 244 242 242 240 235 228 221 216 212 212 208 192 185 181 180 178 177 177 175 169 164
271 268 266 264 263 264 264 264 264 262 259 255 254 251 250 250 250 251 251 250 249 247 242 239 239 238 235 230 222 217 216 216 213 203 192 186 185 184 182 181 179 173 166
271 270 267 265 262 261 261 260 261 262 261 260 257 256 253 252 251 251 250 248 247 245 242 239 237 236 234 230 225 221 221 221 217 211 203 198 196 194 192 190 188 184 180
271 269 268 266 264 262 260 259 258 259 261 261 258 258 257 255 256 254 252 249 246 243 240 238 238 236 234 230 226 224 224 225 225 220 213 211 210 208 205 203 201 200 198
272 270 268 267 266 264 262 260 258 257 257 258 259 258 257 257 257 257 256 255 249 243 238 235 235 235 235 233 230 226 225 228 229 227 224 222 221 220 218 215 214 214 215
275 273 271 269 268 267 266 264 263 261 259 258 257 257 258 257 257 256 257 256 253 246 243 240 237 235 234 233 233 230 228 230 233 231 229 228 227 226 224 223 224 225 226
279 276 274 272 270 269 267 267 266 265 263 261 259 258 257 258 258 258 258 257 257 251 246 244 238 234 234 234 234 233 231 231 233 234 233 231 231 231 231 230 231 232 234
282 279 276 273 271 269 268 267 266 266 264 263 261 259 257 256 257 258 259 258 257 256 253 248 243 237 235 235 233 232 232 232 232 233 235 235 234 234 235 236 237 238 240
285 283 280 276 273 271 269 268 266 265 264 264 262 259 257 255 254 255 256 257 257 256 253 251 250 244 239 236 233 232 232 232 231 232 234 236 236 237 237 239 240 242 243
290 288 284 280 276 273 271 269 267 266 265 264 262 259 257 255 254 253 253 253 254 254 252 251 250 248 242 237 235 233 233 233 232 232 234 236 237 237 238 239 242 244 245
298 295 292 287 283 278 274 271 269 267 266 264 261 258 256 255 253 252 250 250 251 251 251 249 247 247 245 242 239 237 236 236 234 233 234 236 237 238 238 239 241 244 246
309 305 301 296 291 285 279 275 272 269 266 264 262 260 257 254 252 250 248 247 247 248 247 246 246 244 243 243 241 240 238 237 236 236 234 234 235 236 238 240 242 243 246
324 319 313 308 302 294 287 281 277 273 269 266 263 261 257 254 251 248 246 244 244 244 243 243 242 241 241 240 240 240 239 237 237 236 235 234 233 234 236 239 240 241 244
342 337 331 325 318 309 298 291 285 281 276 270 266 262 258 254 251 247 243 241 240 240 239 239 238 237 238 238 238 238 237 236 234 234 234 234 234 233 233 236 238 241 244
352 347 342 337 333 326 317 307 299 292 284 276 269 263 259 255 251 247 242 238 237 236 236 236 236 236 235 236 235 235 236 234 232 231 231 231 232 233 233 234 236 240 243
Height
5919 5918 5917 5916 5916 5915 5915 5914 5914 5914 5914 5913 5913 5913 5913 5912 5912 5912 5912 5912 5912 5912 5912 5912 5912 5912 5912 5913 5913 5914 5915 5915 5916 5916 5917 5917 5917 5917 5916 5916 5916 5915 5914
5919 5919 5918 5917 5917 5916 5916 5916 5915 5915 5915 5915 5914 5914 5913 5913 5913 5912 5912 5912 5912 5911 5911 5911 5911 5911 5911 5911 5912 5912 5913 5913 5914 5915 5915 5915 5915 5915 5915 5915 5915 5915 5914
5920 5919 5919 5918 5918 5917 5917 5917 5916 5916 5916 5915 5915 5915 5914 5914 5913 5912 5912 5912 5911 5911 5911 5910 5910 5909 5909 5910 5910 5911 5911 5912 5912 5913 5913 5913 5914 5913 5914 5914 5914 5914 5914
5919 5919 5919 5919 5918 5918 5918 5917 5917 5917 5916 5916 5915 5915 5915 5914 5913 5913 5912 5911 5911 5910 5910 5909 5909 5908 5908 5908 5908 5909 5909 5910 5910 5911 5911 5912 5912 5912 5912 5912 5913 5913 5913
5919 5919 5919 5918 5918 5918 5918 5917 5917 5917 5916 5916 5916 5915 5915 5914 5913 5913 5912 5911 5911 5910 5909 5909 5908 5907 5907 5907 5907 5907 5908 5908 5908 5909 5909 5910 5910 5910 5910 5911 5912 5912 5912
5918 5918 5918 5918 5917 5917 5917 5917 5917 5916 5916 5916 5915 5915 5914 5914 5913 5913 5912 5911 5910 5910 5909 5908 5908 5907 5906 5906 5906 5906 5906 5907 5907 5907 5908 5908 5909 5909 5909 5910 5911 5911 5912
5917 5916 5916 5916 5916 5916 5916 5916 5916 5915 5915 5915 5914 5914 5913 5913 5913 5912 5912 5911 5910 5910 5909 5908 5907 5907 5906 5906 5906 5906 5906 5906 5906 5906 5906 5907 5908 5908 5908 5909 5910 5911 5911
5915 5914 5914 5914 5913 5913 5913 5913 5913 5913 5913 5913 5913 5912 5912 5912 5912 5911 5911 5911 5910 5909 5909 5908 5907 5907 5906 5906 5905 5905 5905 5905 5905 5905 5906 5906 5907 5907 5908 5909 5910 5910 5911
5912 5911 5911 5910 5910 5910 5910 5910 5910 5910 5910 5911 5910 5910 5910 5910 5910 5910 5910 5910 5909 5909 5908 5908 5907 5906 5906 5906 5905 5905 5905 5905 5905 5905 5905 5906 5906 5907 5908 5909 5910 5910 5911
5909 5908 5907 5907 5906 5905 5905 5905 5906 5906 5906 5907 5907 5907 5908 5908 5908 5908 5908 5908 5908 5908 5908 5907 5907 5906 5906 5905 5905 5905 5905 5905 5904 5905 5905 5906 5906 5907 5908 5909 5910 5910 5911
5906 5905 5904 5903 5902 5901 5901 5901 5901 5901 5901 5902 5903 5903 5904 5904 5904 5905 5905 5906 5906 5906 5906 5906 5906 5905 5905 5905 5905 5905 5905 5905 5905 5905 5905 5906 5906 5907 5908 5909 5910 5910 5911
5902 5901 5900 5899 5898 5897 5897 5897 5896 5896 5896 5897 5898 5898 5899 5900 5900 5901 5902 5903 5903 5904 5904 5904 5905 5905 5904 5904 5904 5905 5905 5905 5905 5905 5905 5906 5907 5907 5908 5909 5910 5910 5911
5896 5894 5894 5894 5893 5892 5892 5891 5891 5891 5891 5891 5892 5893 5894 5895 5895 5896 5897 5898 5899 5900 5901 5902 5902 5903 5903 5903 5904 5904 5904 5904 5904 5905 5905 5906 5907 5907 5908 5909 5910 5911 5911
5888 5887 5886 5885 5885 5885 5885 5885 5885 5885 5885 5886 5886 5887 5888 5889 5889 5890 5891 5893 5894 5895 5897 5898 5899 5900 5901 5901 5902 5903 5903 5904 5904 5905 5905 5906 5907 5907 5908 5909 5910 5910 5911
5879 5878 5877 5876 5876 5876 5877 5877 5878 5878 5879 5879 5880 5881 5882 5883 5884 5884 5885 5886 5888 5889 5891 5893 5895 5896 5897 5898 5899 5900 5901 5902 5903 5904 5905 5906 5906 5907 5908 5909 5909 5910 5911
5869 5868 5867 5866 5866 5866 5866 5867 5868 5869 5871 5872 5872 5873 5875 5876 5877 5878 5879 5880 5881 5882 5883 5886 5889 5891 5893 5895 5896 5897 5899 5900 5901 5902 5903 5904 5905 5906 5907 5908 5909 5909 5910
5859 5858 5857 5856 5856 5856 5856 5856 5857 5859 5861 5862 5864 5865 5866 5867 5869 5871 5872 5873 5873 5875 5877 5879 5882 5885 5887 5890 5892 5893 5895 5897 5898 5899 5901 5902 5903 5904 5906 5907 5907 5908 5909
5849 5848 5847 5846 5846 5846 5846 5846 5847 5848 5850 5852 5854 5856 5857 5859 5860 5862 5864 5865 5866 5867 5869 5872 5875 5878 5881 5883 5886 5888 5891 5893 5894 5896 5897 5899 5901 5902 5903 5905 5906 5907 5908
5840 5838 5837 5836 5836 5835 5835 5836 5836 5837 5838 5840 5843 5845 5847 5849 5851 5853 5856 5857 5859 5861 5863 5865 5867 5870 5873 5876 5879 5882 5885 5888 5890 5892 5894 5895 5897 5899 5900 5902 5903 5904 5905
5831 5829 5827 5826 5825 5825 5825 5825 5825 5826 5827 5829 5831 5833 5836 5838 5840 5843 5846 5848 5851 5854 5856 5858 5860 5863 5866 5869 5872 5875 5879 5882 5885 5887 5889 5891 5893 5895 5897 5898 5900 5901 5902
5823 5821 5818 5817 5816 5815 5815 5815 5815 5815 5816 5817 5819 5821 5824 5827 5829 5833 5836 5838 5841 5845 5848 5850 5852 5855 5858 5861 5865 5868 5872 5875 5879 5881 5883 5885 5887 5890 5892 5894 5896 5897 5899
5816 5814 5811 5809 5807 5806 5805 5805 5805 5805 5805 5806 5807 5809 5812 5815 5818 5822 5825 5829 5832 5836 5839 5842 5844 5847 5850 5853 5857 5860 5864 5868 5871 5874 5877 5880 5882 5884 5886 5889 5891 5893 5894
5811 5808 5805 5803 5801 5799 5797 5796 5795 5795 5795 5795 5796 5798 5800 5803 5806 5810 5814 5818 5822 5826 5830 5833 5836 5840 5842 5846 5849 5853 5856 5860 5864 5867 5870 5873 5876 5878 5881 5883 5885 5887 5889
5807 5803 5800 5797 5795 5792 5790 5789 5787 5787 5786 5786 5786 5787 5789 5792 5795 5798 5802 5806 5811 5815 5819 5823 5827 5830 5834 5838 5841 5845 5849 5852 5856 5859 5862 5866 5869 5872 5875 5877 5879 5881 5883
5804 5801 5797 5793 5790 5787 5785 5782 5781 5779 5778 5778 5778 5778 5780 5781 5784 5787 5791 5795 5799 5804 5809 5813 5817 5821 5825 5829 5833 5836 5840 5844 5847 5851 5855 5858 5862 5865 5868 5871 5873 5875 5877
5803 5799 5795 5791 5787 5783 5780 5778 5775 5773 5771 5770 5770 5770 5771 5772 5775 5777 5780 5784 5789 5793 5798 5803 5807 5811 5816 5820 5824 5828 5831 5835 5839 5843 5847 5850 5854 5858 5861 5864 5867 5869 5870